| time (UTC) | temp C | wind direction | speed KPH | gust KPH | rain 1hr cm | rain 24hr cm | rain mn cm | humidity % | barometer mb |
| 20260905093905 | 28 | 29 | 0.0 | 1.6 | 0.00 | 0.00 | 0.00 | 60 | 1015.0 |
| 20260905093401 | 28 | 186 | 4.8 | 4.8 | 0.00 | 0.00 | 0.00 | 60 | 1015.0 |
| 20260905092857 | 28 | 94 | 3.2 | 4.8 | 0.00 | 0.00 | 0.00 | 60 | 1014.9 |
| 20260905092356 | 28 | 41 | 3.2 | 3.2 | 0.00 | 0.00 | 0.00 | 60 | 1015.0 |
| 20260905091851 | 28 | 145 | 6.4 | 9.7 | 0.00 | 0.00 | 0.00 | 60 | 1015.0 |
| 20260905091351 | 28 | 88 | 3.2 | 3.2 | 0.00 | 0.00 | 0.00 | 60 | 1014.8 |
| 20260905090850 | 28 | 330 | 4.8 | 4.8 | 0.00 | 0.00 | 0.00 | 60 | 1014.9 |
| 20260905090346 | 28 | 46 | 1.6 | 1.6 | 0.00 | 0.00 | 0.00 | 59 | 1015.0 |
| 20260905085845 | 28 | 231 | 4.8 | 6.4 | 0.00 | 0.00 | 0.00 | 59 | 1014.8 |
| 20260905085345 | 28 | 86 | 3.2 | 4.8 | 0.00 | 0.00 | 0.00 | 59 | 1014.8 |
| 20260905084841 | 28 | 179 | 3.2 | 4.8 | 0.00 | 0.00 | 0.00 | 59 | 1014.7 |
| 20260905084340 | 28 | 195 | 4.8 | 4.8 | 0.00 | 0.00 | 0.00 | 59 | 1014.6 |
| 20260905083835 | 28 | 135 | 3.2 | 3.2 | 0.00 | 0.00 | 0.00 | 59 | 1014.6 |
| 20260905083331 | 28 | 197 | 1.6 | 1.6 | 0.00 | 0.00 | 0.00 | 60 | 1014.6 |
| 20260905082826 | 28 | 57 | 1.6 | 1.6 | 0.00 | 0.00 | 0.00 | 60 | 1014.6 |
| 20260905082323 | 28 | 74 | 1.6 | 3.2 | 0.00 | 0.00 | 0.00 | 60 | 1014.7 |
| 20260905081823 | 28 | 10 | 4.8 | 6.4 | 0.00 | 0.00 | 0.00 | 60 | 1014.4 |
| 20260905081318 | 28 | 53 | 3.2 | 3.2 | 0.00 | 0.00 | 0.00 | 60 | 1014.4 |
| 20260905080817 | 28 | 25 | 3.2 | 4.8 | 0.00 | 0.00 | 0.00 | 59 | 1014.5 |
| 20260905080312 | 28 | 181 | 3.2 | 3.2 | 0.00 | 0.00 | 0.00 | 59 | 1014.6 |
| 20260905075810 | 28 | 28 | 1.6 | 1.6 | 0.00 | 0.00 | 0.00 | 58 | 1014.6 |
| 20260905075310 | 28 | 18 | 0.0 | 0.0 | 0.00 | 0.00 | 0.00 | 58 | 1014.5 |
| 20260905074809 | 28 | 216 | 4.8 | 4.8 | 0.00 | 0.00 | 0.00 | 58 | 1014.6 |
| 20260905074305 | 29 | 8 | 1.6 | 1.6 | 0.00 | 0.00 | 0.00 | 57 | 1014.5 |
| 20260905073801 | 29 | 178 | 4.8 | 4.8 | 0.00 | 0.00 | 0.00 | 57 | 1014.6 |
| 20260905073256 | 29 | 205 | 3.2 | 4.8 | 0.00 | 0.00 | 0.00 | 57 | 1014.5 |
| 20260905072755 | 29 | 38 | 0.0 | 0.0 | 0.00 | 0.00 | 0.00 | 57 | 1014.7 |
| 20260905072251 | 29 | 5 | 0.0 | 1.6 | 0.00 | 0.00 | 0.00 | 57 | 1014.8 |
| 20260905071747 | 29 | 14 | 1.6 | 3.2 | 0.00 | 0.00 | 0.00 | 57 | 1014.6 |
| 20260905071243 | 29 | 186 | 3.2 | 3.2 | 0.00 | 0.00 | 0.00 | 57 | 1014.4 |
| 20260905070738 | 29 | 176 | 3.2 | 3.2 | 0.00 | 0.00 | 0.00 | 57 | 1014.9 |
| 20260905070234 | 29 | 41 | 1.6 | 1.6 | 0.00 | 0.00 | 0.00 | 57 | 1014.9 |
| 20260905065733 | 29 | 180 | 3.2 | 4.8 | 0.00 | 0.00 | 0.00 | 57 | 1015.1 |
| 20260905065227 | 29 | 35 | 1.6 | 3.2 | 0.00 | 0.00 | 0.00 | 57 | 1014.8 |
| 20260905064722 | 29 | 24 | 0.0 | 0.0 | 0.00 | 0.00 | 0.00 | 56 | 1015.0 |
| 20260905064218 | 29 | 11 | 0.0 | 1.6 | 0.00 | 0.00 | 0.00 | 56 | 1014.9 |
| 20260905063716 | 29 | 51 | 1.6 | 1.6 | 0.00 | 0.00 | 0.00 | 56 | 1015.0 |
| 20260905063213 | 29 | 23 | 1.6 | 1.6 | 0.00 | 0.00 | 0.00 | 56 | 1015.0 |
| 20260905062708 | 29 | 77 | 3.2 | 3.2 | 0.00 | 0.00 | 0.00 | 55 | 1014.9 |
| 20260905062208 | 29 | 29 | 0.0 | 0.0 | 0.00 | 0.00 | 0.00 | 55 | 1015.1 |
| 20260905061702 | 30 | 24 | 0.0 | 0.0 | 0.00 | 0.00 | 0.00 | 55 | 1015.0 |
| 20260905061201 | 29 | 53 | 0.0 | 1.6 | 0.00 | 0.00 | 0.00 | 55 | 1015.1 |
| 20260905060657 | 30 | 54 | 1.6 | 3.2 | 0.00 | 0.00 | 0.00 | 55 | 1015.1 |
| 20260905060154 | 30 | 211 | 3.2 | 3.2 | 0.00 | 0.00 | 0.00 | 55 | 1015.2 |
| 20260905055652 | 30 | 35 | 1.6 | 3.2 | 0.00 | 0.00 | 0.00 | 55 | 1015.3 |
| 20260905055148 | 30 | 242 | 3.2 | 3.2 | 0.00 | 0.00 | 0.00 | 54 | 1014.9 |
| 20260905054643 | 30 | 37 | 3.2 | 3.2 | 0.00 | 0.00 | 0.00 | 54 | 1015.2 |
| 20260905054138 | 30 | 188 | 6.4 | 6.4 | 0.00 | 0.00 | 0.00 | 54 | 1015.1 |
| 20260905053638 | 30 | 178 | 3.2 | 6.4 | 0.00 | 0.00 | 0.00 | 54 | 1015.0 |
| 20260905053133 | 30 | 207 | 3.2 | 6.4 | 0.00 | 0.00 | 0.00 | 54 | 1015.1 |
| 20260905052632 | 30 | 101 | 3.2 | 4.8 | 0.00 | 0.00 | 0.00 | 53 | 1015.1 |
| 20260905052128 | 30 | 176 | 3.2 | 3.2 | 0.00 | 0.00 | 0.00 | 53 | 1015.0 |
| 20260905051623 | 30 | 188 | 3.2 | 4.8 | 0.00 | 0.00 | 0.00 | 53 | 1015.2 |
| 20260905051120 | 30 | 67 | 1.6 | 3.2 | 0.00 | 0.00 | 0.00 | 52 | 1015.1 |
| 20260905050616 | 30 | 95 | 3.2 | 3.2 | 0.00 | 0.00 | 0.00 | 52 | 1015.1 |
| 20260905050112 | 30 | 40 | 1.6 | 3.2 | 0.00 | 0.00 | 0.00 | 52 | 1014.9 |
| 20260905045612 | 30 | 36 | 1.6 | 1.6 | 0.00 | 0.00 | 0.00 | 51 | 1015.2 |
| 20260905045108 | 30 | 159 | 6.4 | 6.4 | 0.00 | 0.00 | 0.00 | 51 | 1015.0 |
| 20260905044607 | 30 | 129 | 4.8 | 4.8 | 0.00 | 0.00 | 0.00 | 50 | 1015.0 |
| 20260905044102 | 30 | 81 | 3.2 | 3.2 | 0.00 | 0.00 | 0.00 | 50 | 1015.0 |
| 20260905043601 | 30 | 28 | 0.0 | 1.6 | 0.00 | 0.00 | 0.00 | 50 | 1014.9 |
| 20260905043057 | 30 | 47 | 3.2 | 4.8 | 0.00 | 0.00 | 0.00 | 50 | 1014.9 |
| 20260905042555 | 30 | 35 | 1.6 | 1.6 | 0.00 | 0.00 | 0.00 | 49 | 1015.0 |
| 20260905042050 | 30 | 41 | 0.0 | 1.6 | 0.00 | 0.00 | 0.00 | 49 | 1015.0 |
| 20260905041546 | 30 | 68 | 1.6 | 1.6 | 0.00 | 0.00 | 0.00 | 49 | 1014.9 |
| 20260905041041 | 31 | 40 | 3.2 | 3.2 | 0.00 | 0.00 | 0.00 | 49 | 1015.0 |
| 20260905040541 | 31 | 21 | 0.0 | 0.0 | 0.00 | 0.00 | 0.00 | 49 | 1014.9 |
| 20260905040039 | 31 | 32 | 1.6 | 1.6 | 0.00 | 0.00 | 0.00 | 48 | 1014.8 |
| 20260905035535 | 31 | 176 | 1.6 | 3.2 | 0.00 | 0.00 | 0.00 | 49 | 1015.1 |
| 20260905035032 | 30 | 24 | 1.6 | 1.6 | 0.00 | 0.00 | 0.00 | 49 | 1014.9 |
| 20260905034527 | 30 | 356 | 1.6 | 1.6 | 0.00 | 0.00 | 0.00 | 52 | 1014.9 |
| 20260905034026 | 30 | 82 | 1.6 | 3.2 | 0.00 | 0.00 | 0.00 | 52 | 1014.7 |
| 20260905033520 | 30 | 45 | 0.0 | 1.6 | 0.00 | 0.00 | 0.00 | 53 | 1014.9 |
| 20260905033017 | 30 | 20 | 0.0 | 0.0 | 0.00 | 0.00 | 0.00 | 54 | 1014.8 |
| 20260905032511 | 30 | 13 | 0.0 | 0.0 | 0.00 | 0.00 | 0.00 | 53 | 1014.8 |
| 20260905032006 | 30 | 14 | 0.0 | 0.0 | 0.00 | 0.00 | 0.00 | 53 | 1014.9 |
| 20260905031502 | 30 | 13 | 0.0 | 0.0 | 0.00 | 0.00 | 0.00 | 53 | 1014.7 |
| 20260905030957 | 30 | 14 | 0.0 | 0.0 | 0.00 | 0.00 | 0.00 | 52 | 1014.8 |
| 20260905030452 | 30 | 20 | 0.0 | 0.0 | 0.00 | 0.00 | 0.00 | 51 | 1014.5 |
| 20260905025951 | 30 | 13 | 0.0 | 0.0 | 0.00 | 0.00 | 0.00 | 51 | 1014.7 |
| 20260905025447 | 30 | 8 | 0.0 | 0.0 | 0.00 | 0.00 | 0.00 | 51 | 1014.5 |
| 20260905024943 | 30 | 4 | 0.0 | 0.0 | 0.00 | 0.00 | 0.00 | 51 | 1014.5 |
| 20260905024443 | 30 | 16 | 0.0 | 0.0 | 0.00 | 0.00 | 0.00 | 50 | 1014.2 |
| 20260905023939 | 31 | 11 | 0.0 | 0.0 | 0.00 | 0.00 | 0.00 | 50 | 1014.4 |
| 20260905023434 | 31 | 9 | 0.0 | 0.0 | 0.00 | 0.00 | 0.00 | 50 | 1014.4 |
| 20260905022933 | 31 | 8 | 0.0 | 0.0 | 0.00 | 0.00 | 0.00 | 50 | 1014.1 |
| 20260905022428 | 30 | 9 | 0.0 | 0.0 | 0.00 | 0.00 | 0.00 | 50 | 1014.0 |
| 20260905021924 | 31 | 17 | 0.0 | 0.0 | 0.00 | 0.00 | 0.00 | 50 | 1014.0 |
| 20260905021423 | 31 | 21 | 0.0 | 0.0 | 0.00 | 0.00 | 0.00 | 49 | 1014.0 |
| 20260905020919 | 31 | 23 | 0.0 | 0.0 | 0.00 | 0.00 | 0.00 | 50 | 1013.8 |
| 20260905020418 | 31 | 18 | 0.0 | 0.0 | 0.00 | 0.00 | 0.00 | 49 | 1013.9 |
| 20260905015918 | 31 | 18 | 0.0 | 0.0 | 0.00 | 0.00 | 0.00 | 49 | 1013.7 |
| 20260905015416 | 31 | 17 | 0.0 | 0.0 | 0.00 | 0.00 | 0.00 | 49 | 1013.6 |
| 20260905014916 | 31 | 17 | 0.0 | 0.0 | 0.00 | 0.00 | 0.00 | 48 | 1013.4 |
| 20260905014412 | 31 | 17 | 0.0 | 0.0 | 0.00 | 0.00 | 0.00 | 47 | 1013.4 |
| 20260905013912 | 32 | 17 | 0.0 | 0.0 | 0.00 | 0.00 | 0.00 | 46 | 1013.4 |
| 20260905013408 | 32 | 13 | 0.0 | 0.0 | 0.00 | 0.00 | 0.00 | 45 | 1013.5 |
| 20260905012903 | 32 | 11 | 0.0 | 0.0 | 0.00 | 0.00 | 0.00 | 45 | 1013.3 |
| 20260905012358 | 32 | 13 | 0.0 | 0.0 | 0.00 | 0.00 | 0.00 | 44 | 1013.2 |
| 20260905011855 | 32 | 12 | 0.0 | 0.0 | 0.00 | 0.00 | 0.00 | 44 | 1013.3 |
| 20260905011350 | 33 | 13 | 0.0 | 0.0 | 0.00 | 0.00 | 0.00 | 43 | 1013.2 |
| 20260905010847 | 33 | 10 | 0.0 | 0.0 | 0.00 | 0.00 | 0.00 | 42 | 1013.4 |
| 20260905010347 | 33 | 6 | 0.0 | 0.0 | 0.00 | 0.00 | 0.00 | 42 | 1013.4 |
| 20260905005843 | 34 | 14 | 0.0 | 0.0 | 0.00 | 0.00 | 0.00 | 41 | 1013.0 |
| 20260905005339 | 34 | 14 | 0.0 | 0.0 | 0.00 | 0.00 | 0.00 | 40 | 1013.0 |
| 20260905004834 | 35 | 10 | 0.0 | 0.0 | 0.00 | 0.00 | 0.00 | 39 | 1013.2 |
| 20260905004328 | 35 | 23 | 0.0 | 1.6 | 0.00 | 0.00 | 0.00 | 38 | 1013.1 |
| 20260905003824 | 35 | 359 | 0.0 | 0.0 | 0.00 | 0.00 | 0.00 | 38 | 1013.1 |
| 20260905003320 | 35 | 343 | 1.6 | 1.6 | 0.00 | 0.00 | 0.00 | 38 | 1013.2 |
| 20260905002815 | 35 | 13 | 0.0 | 0.0 | 0.00 | 0.00 | 0.00 | 38 | 1012.9 |
| 20260905002315 | 36 | 344 | 1.6 | 1.6 | 0.00 | 0.00 | 0.00 | 37 | 1013.3 |
| 20260905001810 | 36 | 162 | 4.8 | 6.4 | 0.00 | 0.00 | 0.00 | 37 | 1012.9 |
| 20260905001309 | 36 | 211 | 3.2 | 4.8 | 0.00 | 0.00 | 0.00 | 37 | 1012.9 |
| 20260905000805 | 36 | 6 | 1.6 | 3.2 | 0.00 | 0.00 | 0.00 | 36 | 1012.9 |
| 20260905000300 | 36 | 20 | 1.6 | 1.6 | 0.00 | 0.00 | 0.00 | 36 | 1013.1 |
| 20260904235755 | 36 | 63 | 3.2 | 3.2 | 0.00 | 0.00 | 0.00 | 35 | 1013.2 |
| 20260904235249 | 36 | 35 | 3.2 | 3.2 | 0.00 | 0.00 | 0.00 | 35 | 1013.1 |
| 20260904234744 | 37 | 104 | 6.4 | 6.4 | 0.00 | 0.00 | 0.00 | 34 | 1013.2 |
| 20260904234240 | 36 | 56 | 3.2 | 4.8 | 0.00 | 0.00 | 0.00 | 35 | 1013.0 |
| 20260904233735 | 37 | 271 | 4.8 | 6.4 | 0.00 | 0.00 | 0.00 | 36 | 1013.0 |
| 20260904233232 | 37 | 172 | 4.8 | 4.8 | 0.00 | 0.00 | 0.00 | 35 | 1013.1 |
| 20260904232728 | 37 | 220 | 3.2 | 6.4 | 0.00 | 0.00 | 0.00 | 35 | 1013.1 |
| 20260904232224 | 37 | 193 | 6.4 | 12.9 | 0.00 | 0.00 | 0.00 | 34 | 1013.1 |
| 20260904231719 | 37 | 71 | 1.6 | 1.6 | 0.00 | 0.00 | 0.00 | 35 | 1013.0 |
| 20260904231215 | 37 | 223 | 6.4 | 6.4 | 0.00 | 0.00 | 0.00 | 35 | 1013.0 |
| 20260904230714 | 37 | 180 | 6.4 | 9.7 | 0.00 | 0.00 | 0.00 | 34 | 1013.2 |
| 20260904230209 | 37 | 184 | 6.4 | 6.4 | 0.00 | 0.00 | 0.00 | 35 | 1013.3 |
| 20260904225708 | 37 | 196 | 3.2 | 4.8 | 0.00 | 0.00 | 0.00 | 35 | 1013.2 |
| 20260904225203 | 37 | 8 | 3.2 | 4.8 | 0.00 | 0.00 | 0.00 | 35 | 1012.9 |
| 20260904224701 | 37 | 210 | 9.7 | 16.1 | 0.00 | 0.00 | 0.00 | 34 | 1013.1 |
| 20260904224157 | 37 | 133 | 6.4 | 9.7 | 0.00 | 0.00 | 0.00 | 34 | 1013.1 |
| 20260904223656 | 37 | 84 | 6.4 | 9.7 | 0.00 | 0.00 | 0.00 | 34 | 1013.2 |
| 20260904223151 | 37 | 42 | 1.6 | 3.2 | 0.00 | 0.00 | 0.00 | 35 | 1013.2 |
| 20260904222647 | 37 | 115 | 6.4 | 6.4 | 0.00 | 0.00 | 0.00 | 35 | 1013.3 |
| 20260904222143 | 37 | 33 | 3.2 | 4.8 | 0.00 | 0.00 | 0.00 | 35 | 1013.2 |
| 20260904221642 | 37 | 41 | 0.0 | 1.6 | 0.00 | 0.00 | 0.00 | 35 | 1013.0 |
| 20260904221137 | 37 | 143 | 8.0 | 12.9 | 0.00 | 0.00 | 0.00 | 35 | 1013.2 |
| 20260904220632 | 37 | 23 | 1.6 | 1.6 | 0.00 | 0.00 | 0.00 | 36 | 1013.1 |
| 20260904220127 | 37 | 104 | 9.7 | 12.9 | 0.00 | 0.00 | 0.00 | 34 | 1013.4 |
| 20260904215622 | 38 | 131 | 9.7 | 11.3 | 0.00 | 0.00 | 0.00 | 34 | 1013.4 |
| 20260904215118 | 37 | 223 | 6.4 | 9.7 | 0.00 | 0.00 | 0.00 | 34 | 1013.3 |
| 20260904214618 | 38 | 30 | 3.2 | 6.4 | 0.00 | 0.00 | 0.00 | 34 | 1013.4 |
| 20260904214113 | 37 | 43 | 3.2 | 4.8 | 0.00 | 0.00 | 0.00 | 34 | 1013.4 |
| 20260904213611 | 37 | 131 | 3.2 | 6.4 | 0.00 | 0.00 | 0.00 | 35 | 1013.7 |
| 20260904213108 | 38 | 117 | 6.4 | 12.9 | 0.00 | 0.00 | 0.00 | 34 | 1013.7 |
| 20260904212607 | 38 | 232 | 4.8 | 6.4 | 0.00 | 0.00 | 0.00 | 34 | 1013.5 |
| 20260904212103 | 37 | 328 | 1.6 | 3.2 | 0.00 | 0.00 | 0.00 | 34 | 1013.3 |
| 20260904211602 | 37 | 67 | 3.2 | 3.2 | 0.00 | 0.00 | 0.00 | 35 | 1013.6 |
| 20260904211058 | 37 | 105 | 6.4 | 6.4 | 0.00 | 0.00 | 0.00 | 35 | 1013.6 |
| 20260904210557 | 37 | 183 | 6.4 | 11.3 | 0.00 | 0.00 | 0.00 | 35 | 1013.7 |
| 20260904210053 | 37 | 28 | 3.2 | 3.2 | 0.00 | 0.00 | 0.00 | 36 | 1013.6 |
| 20260904205548 | 38 | 16 | 0.0 | 1.6 | 0.00 | 0.00 | 0.00 | 35 | 1014.0 |
| 20260904205045 | 38 | 124 | 4.8 | 6.4 | 0.00 | 0.00 | 0.00 | 35 | 1013.8 |
| 20260904204541 | 38 | 190 | 4.8 | 4.8 | 0.00 | 0.00 | 0.00 | 35 | 1014.0 |
| 20260904204036 | 38 | 133 | 9.7 | 12.9 | 0.00 | 0.00 | 0.00 | 33 | 1014.0 |
| 20260904203532 | 38 | 182 | 6.4 | 6.4 | 0.00 | 0.00 | 0.00 | 34 | 1014.0 |
| 20260904203028 | 38 | 239 | 9.7 | 12.9 | 0.00 | 0.00 | 0.00 | 35 | 1013.9 |
| 20260904202524 | 38 | 192 | 8.0 | 11.3 | 0.00 | 0.00 | 0.00 | 35 | 1014.1 |
| 20260904202020 | 37 | 13 | 1.6 | 3.2 | 0.00 | 0.00 | 0.00 | 35 | 1014.1 |
| 20260904201515 | 37 | 340 | 4.8 | 4.8 | 0.00 | 0.00 | 0.00 | 36 | 1014.1 |
| 20260904201010 | 37 | 232 | 9.7 | 11.3 | 0.00 | 0.00 | 0.00 | 36 | 1014.4 |
| 20260904200509 | 38 | 176 | 8.0 | 11.3 | 0.00 | 0.00 | 0.00 | 34 | 1014.5 |
| 20260904200004 | 37 | 8 | 4.8 | 4.8 | 0.00 | 0.00 | 0.00 | 37 | 1014.5 |
| 20260904195502 | 37 | 154 | 6.4 | 6.4 | 0.00 | 0.00 | 0.00 | 37 | 1014.5 |
| 20260904195001 | 37 | 184 | 8.0 | 12.9 | 0.00 | 0.00 | 0.00 | 36 | 1014.6 |
| 20260904194457 | 37 | 259 | 8.0 | 11.3 | 0.00 | 0.00 | 0.00 | 36 | 1014.6 |
| 20260904193951 | 37 | 173 | 4.8 | 4.8 | 0.00 | 0.00 | 0.00 | 36 | 1014.6 |
| 20260904193447 | 37 | 336 | 4.8 | 6.4 | 0.00 | 0.00 | 0.00 | 36 | 1014.7 |
| 20260904192942 | 37 | 214 | 4.8 | 6.4 | 0.00 | 0.00 | 0.00 | 37 | 1014.9 |
| 20260904192437 | 36 | 204 | 8.0 | 11.3 | 0.00 | 0.00 | 0.00 | 38 | 1014.7 |
| 20260904191933 | 36 | 185 | 9.7 | 11.3 | 0.00 | 0.00 | 0.00 | 38 | 1014.9 |
| 20260904191430 | 36 | 248 | 9.7 | 12.9 | 0.00 | 0.00 | 0.00 | 40 | 1014.9 |
| 20260904190926 | 36 | 103 | 11.3 | 12.9 | 0.00 | 0.00 | 0.00 | 40 | 1015.0 |
| 20260904190426 | 35 | 160 | 11.3 | 14.5 | 0.00 | 0.00 | 0.00 | 40 | 1015.0 |
| 20260904185923 | 35 | 160 | 3.2 | 4.8 | 0.00 | 0.00 | 0.00 | 41 | 1015.3 |
| 20260904185419 | 36 | 72 | 4.8 | 6.4 | 0.00 | 0.00 | 0.00 | 41 | 1015.3 |
| 20260904184918 | 36 | 294 | 4.8 | 4.8 | 0.00 | 0.00 | 0.00 | 41 | 1015.2 |
| 20260904184413 | 36 | 108 | 12.9 | 14.5 | 0.00 | 0.00 | 0.00 | 41 | 1015.3 |
| 20260904183908 | 36 | 223 | 8.0 | 9.7 | 0.00 | 0.00 | 0.00 | 42 | 1015.4 |
| 20260904183403 | 36 | 134 | 4.8 | 6.4 | 0.00 | 0.00 | 0.00 | 41 | 1015.5 |
| 20260904182900 | 36 | 155 | 6.4 | 9.7 | 0.00 | 0.00 | 0.00 | 39 | 1015.6 |
| 20260904182400 | 36 | 164 | 9.7 | 11.3 | 0.00 | 0.00 | 0.00 | 41 | 1015.7 |
| 20260904181855 | 35 | 346 | 4.8 | 6.4 | 0.00 | 0.00 | 0.00 | 41 | 1015.6 |
| 20260904181349 | 35 | 222 | 3.2 | 6.4 | 0.00 | 0.00 | 0.00 | 42 | 1015.6 |
| 20260904180845 | 35 | 4 | 1.6 | 3.2 | 0.00 | 0.00 | 0.00 | 43 | 1015.6 |
| 20260904180335 | 35 | 91 | 6.4 | 9.7 | 0.00 | 0.00 | 0.00 | 45 | 1015.9 |
| 20260904175834 | 35 | 113 | 6.4 | 9.7 | 0.00 | 0.00 | 0.00 | 45 | 1016.0 |
| 20260904175334 | 35 | 144 | 8.0 | 16.1 | 0.00 | 0.00 | 0.00 | 44 | 1016.0 |
| 20260904174827 | 35 | 150 | 6.4 | 6.4 | 0.00 | 0.00 | 0.00 | 43 | 1016.1 |
| 20260904174323 | 35 | 197 | 4.8 | 4.8 | 0.00 | 0.00 | 0.00 | 44 | 1016.0 |
| 20260904173818 | 34 | 96 | 4.8 | 4.8 | 0.00 | 0.00 | 0.00 | 45 | 1016.0 |
| 20260904173313 | 35 | 209 | 11.3 | 12.9 | 0.00 | 0.00 | 0.00 | 44 | 1016.3 |
| 20260904172810 | 35 | 237 | 6.4 | 9.7 | 0.00 | 0.00 | 0.00 | 44 | 1016.4 |
| 20260904172308 | 35 | 115 | 4.8 | 6.4 | 0.00 | 0.00 | 0.00 | 45 | 1016.3 |
| 20260904171804 | 35 | 166 | 8.0 | 11.3 | 0.00 | 0.00 | 0.00 | 43 | 1016.5 |
| 20260904171259 | 35 | 151 | 6.4 | 9.7 | 0.00 | 0.00 | 0.00 | 44 | 1016.4 |
| 20260904170756 | 34 | 130 | 6.4 | 9.7 | 0.00 | 0.00 | 0.00 | 45 | 1016.4 |
| 20260904170251 | 35 | 114 | 8.0 | 11.3 | 0.00 | 0.00 | 0.00 | 45 | 1016.5 |
| 20260904165750 | 34 | 319 | 4.8 | 6.4 | 0.00 | 0.00 | 0.00 | 46 | 1016.5 |
| 20260904165244 | 33 | 141 | 12.9 | 17.7 | 0.00 | 0.00 | 0.00 | 46 | 1016.6 |
| 20260904164744 | 33 | 229 | 8.0 | 9.7 | 0.00 | 0.00 | 0.00 | 47 | 1016.5 |
| 20260904164239 | 33 | 171 | 6.4 | 11.3 | 0.00 | 0.00 | 0.00 | 48 | 1016.8 |
| 20260904163735 | 33 | 83 | 6.4 | 6.4 | 0.00 | 0.00 | 0.00 | 47 | 1016.8 |
| 20260904163230 | 33 | 269 | 8.0 | 9.7 | 0.00 | 0.00 | 0.00 | 49 | 1016.7 |
| 20260904162729 | 33 | 21 | 3.2 | 3.2 | 0.00 | 0.00 | 0.00 | 49 | 1016.7 |
| 20260904162225 | 32 | 111 | 4.8 | 6.4 | 0.00 | 0.00 | 0.00 | 50 | 1016.8 |
| 20260904161720 | 32 | 188 | 11.3 | 14.5 | 0.00 | 0.00 | 0.00 | 50 | 1016.7 |
| 20260904161215 | 32 | 223 | 9.7 | 12.9 | 0.00 | 0.00 | 0.00 | 51 | 1016.7 |
| 20260904160711 | 33 | 188 | 3.2 | 6.4 | 0.00 | 0.00 | 0.00 | 51 | 1016.9 |
| 20260904160206 | 33 | 178 | 6.4 | 9.7 | 0.00 | 0.00 | 0.00 | 49 | 1016.9 |
| 20260904155701 | 32 | 56 | 1.6 | 3.2 | 0.00 | 0.00 | 0.00 | 53 | 1016.7 |
| 20260904155200 | 32 | 152 | 6.4 | 6.4 | 0.00 | 0.00 | 0.00 | 53 | 1016.8 |
| 20260904154659 | 32 | 165 | 9.7 | 9.7 | 0.00 | 0.00 | 0.00 | 54 | 1016.7 |
| 20260904154159 | 32 | 88 | 3.2 | 4.8 | 0.00 | 0.00 | 0.00 | 53 | 1016.9 |
| 20260904153654 | 32 | 113 | 6.4 | 6.4 | 0.00 | 0.00 | 0.00 | 55 | 1016.8 |
| 20260904153149 | 32 | 298 | 4.8 | 6.4 | 0.00 | 0.00 | 0.00 | 55 | 1017.0 |
| 20260904152646 | 32 | 182 | 8.0 | 12.9 | 0.00 | 0.00 | 0.00 | 56 | 1016.9 |
| 20260904152142 | 31 | 150 | 4.8 | 4.8 | 0.00 | 0.00 | 0.00 | 57 | 1016.9 |
| 20260904151641 | 31 | 199 | 4.8 | 9.7 | 0.00 | 0.00 | 0.00 | 57 | 1016.8 |
| 20260904151140 | 31 | 167 | 4.8 | 4.8 | 0.00 | 0.00 | 0.00 | 58 | 1016.9 |
| 20260904150636 | 31 | 161 | 8.0 | 9.7 | 0.00 | 0.00 | 0.00 | 59 | 1016.9 |
| 20260904150132 | 31 | 178 | 11.3 | 14.5 | 0.00 | 0.00 | 0.00 | 58 | 1017.0 |
| 20260904145630 | 30 | 171 | 4.8 | 4.8 | 0.00 | 0.00 | 0.00 | 60 | 1016.7 |
| 20260904145125 | 30 | 271 | 4.8 | 6.4 | 0.00 | 0.00 | 0.00 | 60 | 1016.8 |
| 20260904144621 | 31 | 160 | 4.8 | 6.4 | 0.00 | 0.00 | 0.00 | 59 | 1016.9 |
| 20260904144116 | 30 | 299 | 3.2 | 3.2 | 0.00 | 0.00 | 0.00 | 60 | 1016.9 |
| 20260904143612 | 30 | 130 | 6.4 | 6.4 | 0.00 | 0.00 | 0.00 | 60 | 1016.7 |
| 20260904143108 | 30 | 237 | 4.8 | 6.4 | 0.00 | 0.00 | 0.00 | 60 | 1016.9 |
| 20260904142605 | 30 | 153 | 3.2 | 3.2 | 0.00 | 0.00 | 0.00 | 62 | 1016.8 |
| 20260904142105 | 30 | 163 | 6.4 | 9.7 | 0.00 | 0.00 | 0.00 | 62 | 1017.0 |
| 20260904141601 | 29 | 303 | 1.6 | 3.2 | 0.00 | 0.00 | 0.00 | 63 | 1016.8 |
| 20260904141056 | 29 | 32 | 3.2 | 3.2 | 0.00 | 0.00 | 0.00 | 63 | 1016.9 |
| 20260904140551 | 28 | 236 | 3.2 | 3.2 | 0.00 | 0.00 | 0.00 | 64 | 1016.9 |
| 20260904140045 | 28 | 128 | 6.4 | 6.4 | 0.00 | 0.00 | 0.00 | 65 | 1017.0 |
| 20260904135544 | 28 | 39 | 3.2 | 3.2 | 0.00 | 0.00 | 0.00 | 64 | 1016.8 |
| 20260904135041 | 28 | 97 | 3.2 | 3.2 | 0.00 | 0.00 | 0.00 | 64 | 1016.8 |
| 20260904134537 | 28 | 131 | 3.2 | 3.2 | 0.00 | 0.00 | 0.00 | 63 | 1016.8 |
| 20260904134030 | 28 | 170 | 3.2 | 4.8 | 0.00 | 0.00 | 0.00 | 63 | 1016.7 |
| 20260904133526 | 27 | 31 | 0.0 | 1.6 | 0.00 | 0.00 | 0.00 | 65 | 1016.9 |
| 20260904133022 | 27 | 231 | 3.2 | 3.2 | 0.00 | 0.00 | 0.00 | 65 | 1016.8 |
| 20260904132521 | 27 | 44 | 0.0 | 1.6 | 0.00 | 0.00 | 0.00 | 66 | 1016.6 |
| 20260904132022 | 27 | 60 | 3.2 | 4.8 | 0.00 | 0.00 | 0.00 | 66 | 1016.5 |
| 20260904131521 | 27 | 209 | 4.8 | 9.7 | 0.00 | 0.00 | 0.00 | 66 | 1016.8 |
| 20260904131017 | 26 | 100 | 6.4 | 9.7 | 0.00 | 0.00 | 0.00 | 66 | 1016.7 |
| 20260904130516 | 26 | 57 | 3.2 | 4.8 | 0.00 | 0.00 | 0.00 | 66 | 1016.4 |
| 20260904130011 | 26 | 93 | 3.2 | 4.8 | 0.00 | 0.00 | 0.00 | 66 | 1016.8 |
| 20260904125508 | 26 | 44 | 3.2 | 4.8 | 0.00 | 0.00 | 0.00 | 67 | 1016.5 |
| 20260904125003 | 26 | 172 | 6.4 | 6.4 | 0.00 | 0.00 | 0.00 | 67 | 1016.5 |
| 20260904124458 | 26 | 205 | 3.2 | 4.8 | 0.00 | 0.00 | 0.00 | 67 | 1016.5 |
| 20260904123953 | 26 | 48 | 1.6 | 1.6 | 0.00 | 0.00 | 0.00 | 68 | 1016.5 |
| 20260904123448 | 26 | 130 | 6.4 | 6.4 | 0.00 | 0.00 | 0.00 | 68 | 1016.3 |
| 20260904122943 | 26 | 38 | 0.0 | 1.6 | 0.00 | 0.00 | 0.00 | 69 | 1016.3 |
| 20260904122443 | 25 | 44 | 3.2 | 3.2 | 0.00 | 0.00 | 0.00 | 69 | 1016.4 |
| 20260904121937 | 25 | 44 | 1.6 | 1.6 | 0.00 | 0.00 | 0.00 | 70 | 1016.6 |
| 20260904121434 | 25 | 67 | 1.6 | 1.6 | 0.00 | 0.00 | 0.00 | 70 | 1016.3 |
| 20260904120930 | 25 | 24 | 0.0 | 0.0 | 0.00 | 0.00 | 0.00 | 70 | 1016.5 |
| 20260904120426 | 25 | 96 | 1.6 | 1.6 | 0.00 | 0.00 | 0.00 | 70 | 1016.4 |
| 20260904115920 | 25 | 145 | 1.6 | 3.2 | 0.00 | 0.00 | 0.00 | 70 | 1016.3 |
| 20260904115416 | 25 | 340 | 1.6 | 1.6 | 0.00 | 0.00 | 0.00 | 70 | 1016.1 |
| 20260904114910 | 25 | 194 | 3.2 | 4.8 | 0.00 | 0.00 | 0.00 | 70 | 1016.0 |
| 20260904114405 | 25 | 50 | 1.6 | 1.6 | 0.00 | 0.00 | 0.00 | 70 | 1016.1 |
| 20260904113901 | 25 | 98 | 3.2 | 4.8 | 0.00 | 0.00 | 0.00 | 70 | 1016.1 |
| 20260904113400 | 25 | 64 | 3.2 | 3.2 | 0.00 | 0.00 | 0.00 | 70 | 1016.2 |
| 20260904112859 | 25 | 30 | 3.2 | 3.2 | 0.00 | 0.00 | 0.00 | 70 | 1016.0 |
| 20260904112355 | 25 | 5 | 3.2 | 3.2 | 0.00 | 0.00 | 0.00 | 70 | 1016.0 |
| 20260904111851 | 25 | 47 | 1.6 | 1.6 | 0.00 | 0.00 | 0.00 | 70 | 1016.0 |
| 20260904111346 | 25 | 67 | 1.6 | 1.6 | 0.00 | 0.00 | 0.00 | 69 | 1015.9 |
| 20260904110842 | 25 | 32 | 1.6 | 3.2 | 0.00 | 0.00 | 0.00 | 69 | 1016.0 |
| 20260904110341 | 25 | 50 | 1.6 | 3.2 | 0.00 | 0.00 | 0.00 | 69 | 1015.9 |
| 20260904105836 | 25 | 115 | 3.2 | 3.2 | 0.00 | 0.00 | 0.00 | 69 | 1015.8 |
| 20260904105331 | 25 | 23 | 1.6 | 1.6 | 0.00 | 0.00 | 0.00 | 68 | 1015.7 |
| 20260904104826 | 26 | 1 | 1.6 | 1.6 | 0.00 | 0.00 | 0.00 | 68 | 1015.9 |
| 20260904104321 | 26 | 41 | 1.6 | 1.6 | 0.00 | 0.00 | 0.00 | 68 | 1015.7 |
| 20260904103818 | 26 | 164 | 8.0 | 11.3 | 0.00 | 0.00 | 0.00 | 67 | 1015.5 |
| 20260904103317 | 26 | 162 | 3.2 | 4.8 | 0.00 | 0.00 | 0.00 | 67 | 1015.5 |
| 20260904102813 | 26 | 190 | 3.2 | 3.2 | 0.00 | 0.00 | 0.00 | 67 | 1015.6 |
| 20260904102309 | 26 | 205 | 3.2 | 4.8 | 0.00 | 0.00 | 0.00 | 66 | 1015.6 |
| 20260904101804 | 26 | 42 | 1.6 | 1.6 | 0.00 | 0.00 | 0.00 | 66 | 1015.4 |
| 20260904101301 | 26 | 116 | 3.2 | 4.8 | 0.00 | 0.00 | 0.00 | 66 | 1015.4 |
| 20260904100756 | 26 | 178 | 6.4 | 11.3 | 0.00 | 0.00 | 0.00 | 66 | 1015.4 |
| 20260904100252 | 26 | 57 | 3.2 | 3.2 | 0.00 | 0.00 | 0.00 | 65 | 1015.4 |
| 20260904095752 | 26 | 55 | 1.6 | 1.6 | 0.00 | 0.00 | 0.00 | 65 | 1015.5 |
| 20260904095247 | 26 | 185 | 3.2 | 4.8 | 0.00 | 0.00 | 0.00 | 65 | 1015.5 |
| 20260904094742 | 26 | 46 | 1.6 | 1.6 | 0.00 | 0.00 | 0.00 | 65 | 1015.5 |
| 20260904094237 | 26 | 74 | 4.8 | 6.4 | 0.00 | 0.00 | 0.00 | 65 | 1015.5 |